Regional Weather Roundup
Issued by NWS Grand Forks, ND

Home | Current Version | Previous Version | Text Only | Print | Product List | Glossary Off
Versions: 1 2 3 4 5 6 7 8 9 10 11 12 13 14 15 16 17 18 19 20 21 22 23 24 25 26 27 28 29 30 31 32 33 34 35 36 37 38 39 40 41 42 43 44 45 46 47 48 49 50

210
ASUS43 KFGF 061431
RWRFGF
PRAIRIE TO PINES  WEATHER ROUNDUP
NATIONAL WEATHER SERVICE EASTERN NORTH DAKOTA/GRAND FORKS ND
900 AM CDT FRI MAY 06 2016

 **SATELLITE DATA USED TO AUGMENT SKY COVER AT AUTOMATED STATIONS**
 *****  WEATHER ACROSS EASTERN NORTH DAKOTA  *****

CITY           SKY/WX    TMP DP  RH WIND       PRES   REMARKS
GRAND FORKS    PTSUNNY   72  47  40 NW20      29.73R
GRAND FRKS AFB SUNNY     72  45  37 N21G26    29.73R
DEVILS LAKE    MOSUNNY   64  46  52 N32G39    29.80  HAZE
FARGO          SUNNY     70  47  43 S10       29.74
WAHPETON ARPT  MOSUNNY   70  46  43 S7        29.77S
$$

 ***** WEATHER ACROSS CENTRAL AND WESTERN NORTH DAKOTA  *****

CITY           SKY/WX    TMP DP  RH WIND       PRES   REMARKS
BISMARCK       NOT AVBL
MINOT          SUNNY     67  46  47 N20G31    29.91
JAMESTOWN      MOSUNNY   71  52  50 NW14      29.77
MINOT AFB      SUNNY     62  47  57 N23G30    29.92R
GARRISON         N/A     64  47  53 N20G32    29.89R
WILLISTON      NOT AVBL
DICKINSON      PTSUNNY   60  45  57 N16G25    29.96
HETTINGER      MOSUNNY   61  44  53 N17G26    29.92
$$

 *****  OTHER AIRPORT OBSERVATIONS IN OUR AREA  *****

CITY           SKY/WX    TMP DP  RH WIND       PRES   REMARKS
WALHALLA       FAIR      57  39  51 N18G33    29.86R
GRAFTON AIRPOR FAIR      61  43  51 N28G43    29.78R
VALLEY CITY AR FAIR      72  52  49 W10       29.79R
CANDO          FAIR      59  41  51 N33G39    29.88R
CAVALIER APRT  FAIR      59  41  51 N30G39    29.81R
GWINNER        FAIR      68  52  56 SW14      29.78S
SHEYENNE NWR     N/A     70  49  48 W12       29.95S
ROLLA          FAIR      57  37  47 N30G41    29.90R
 ***** THE ABOVE OBSERVATIONS ARE NON NWS ARE NOT QUALITY
       CONTROLLED AND MAY MIS-REPORT RAIN FOR SNOW...
$$

  *****  WEATHER ACROSS NORTHERN MINNESOTA  *****

CITY           SKY/WX    TMP DP  RH WIND       PRES   REMARKS
FLAG ISLAND    MOSUNNY   70  43  37 W13       29.63R
WARROAD        SUNNY     73  52  46 W16G24    29.67S
ROSEAU         MOSUNNY   72  48  43 W14G21    29.69R
HALLOCK        MOSUNNY   66  43  42 N30G38    29.74R
THF RVR FALLS  CLOUDY    70  45  40 W13       29.74
BAUDETTE       CLOUDY    72  45  37 W9        29.66
WASKISH        CLOUDY    68  48  49 SW13      29.71S
CROOKSTON      SUNNY     72  48  43 W10       29.74R
STEPHEN NDAWN    N/A     66  46  48 NW22        N/A
GREENBUSH NDAW   N/A     66  46  48 NW12        N/A
$$
  *****  WEATHER ACROSS CENTRAL AND WEST MINNESOTA  *****

CITY           SKY/WX    TMP DP  RH WIND       PRES   REMARKS
FOSSTON        MOSUNNY   72  45  37 S16       29.75S
BEMIDJI        SUNNY     76  48  37 SW12      29.74F
PARK RAPIDS    SUNNY     73  46  38 W9        29.76
ELBOW LAKE     FAIR      71  49  46 W12       29.79F
WADENA         SUNNY     73  48  40 SW12      29.77F
DETROIT LAKES  SUNNY     72  46  40 SW8       29.77F
MOORHEAD       SUNNY     70  46  43 SW9       29.76S
FERGUS FALLS   SUNNY     72  48  43 S10       29.75F
MORRIS MN      CLOUDY    73  50  43 SW13G18   29.78F
STAPLES        SUNNY     73  45  35 W9        29.78F
$$
  *****  WEATHER ELSEWHERE ACROSS MINNESOTA  *****

CITY           SKY/WX    TMP DP  RH WIND       PRES   REMARKS
DULUTH         SUNNY     76  44  32 W13       29.78
INTRNTL FALLS  MOSUNNY   73  46  38 SW10G16   29.66
ELY            SUNNY     77  43  29 SW10      29.73F
CLOQUET        SUNNY     79  39  24 W8G16     29.78F
WHEATON        PTSUNNY   73  54  49 SW7       29.78S
BRAINERD       SUNNY     71  45  39 SW9       29.80
HIBBING        SUNNY     74  43  32 W8G17     29.75
ALEXANDRIA     SUNNY     70  46  42 SW15      29.82
SAINT CLOUD    SUNNY     71  45  39 SW8       29.83
MINNEAPOLIS    MOSUNNY   69  44  40 SW12      29.87
$$

  *****  WEATHER ACROSS SOUTH DAKOTA  *****

CITY           SKY/WX    TMP DP  RH WIND       PRES   REMARKS
SIOUX FALLS    MOSUNNY   66  48  52 SW9G17    29.90S
BROOKINGS      SUNNY     70  49  47 SW17G23   29.86
WATERTOWN      SUNNY     70  51  51 SW17      29.82
HURON          SUNNY     70  54  56 SW9       29.83R
SISSETON         N/A     70  51  51 W12       29.75S
ABERDEEN       MOSUNNY   67  52  58 W8        29.79
MITCHELL       MOSUNNY   71  51  49 SW13      29.88
PIERRE         MOSUNNY   66  52  60 SW5       29.83
MOBRIDGE       NOT AVBL
RAPID CITY     MOSUNNY   69  48  47 N5        29.90R
$$

  *****  SOME WEATHER IN NEARBY STATES *****

CITY           SKY/WX    TMP DP  RH WIND       PRES   REMARKS
GLASGOW MT     LGT RAIN  50  45  83 NW10      30.17R
GREAT FALLS MT LGT RAIN  46  45  96 N9        30.27R
CHEYENNE WY    PTSUNNY   54  43  66 W6        30.02R
SCOTTSBLUFF NE PTSUNNY   60  46  59 SE10      29.95R
OMAHA NE       NOT AVBL
DES MOINES IA  MOSUNNY   65  46  50 SW8       30.01
DAVENPORT IA     N/A     63  39  41 W13       30.02S
CHICAGO IL     PTSUNNY   58  42  55 W8        29.99S
EAU CLAIRE WI  SUNNY     68  45  43 W8        29.87
LA CROSSE WI   SUNNY     64  44  48 S8        29.91
$$

  *****  SOME NATIONAL WEATHER *****

CITY           SKY/WX    TMP DP  RH WIND       PRES   REMARKS
LA GUARDIA NY  LGT RAIN  50  48  93 NE17G28   29.71R FOG
RALEIGH NC     PTSUNNY   55  49  80 NW9       29.73R
ATLANTA GA     SUNNY     58  44  60 N15       29.94R
NEW ORLEANS LA MOSUNNY   68  50  52 NE14      30.06R
OKLAHOMA CITY  PTSUNNY   64  51  62 S8        30.11R
ALBUQUERQUE NM SUNNY     68  28  22 E5        30.01R
SALT LAKE CITY CLOUDY    63  42  46 E23G29    29.84R
LOS ANGELES CA PTSUNNY   59  53  80 W5        29.86R
BOISE ID       PTSUNNY   56  50  80 W5        29.83F
SEATTLE WA     MOSUNNY   54  43  66 N12       30.10R
$$

*** WEATHER ACROSS MANITOBA...SASKATCHEWAN AND ONTARIO ***
                ***ONTARIO***

CITY           SKY/WX    TMP DP  RH WIND       PRES   REMARKS
GERALDTON      CLOUDY    50  37  62 SE9       29.67F
THUNDER BAY    PTSUNNY   48  36  61 NE6       29.74F
SIOUX LOOKOUT  PTSUNNY   66  46  48 S7        29.59F
TORONTO        MOSUNNY   61  41  48 N9        29.88S
BIG TROUT LK   MOSUNNY   34  21  60 E9G17     29.71F
PICKLE LAKE    CLOUDY    52  39  62 E7        29.60R
DRYDEN         MOSUNNY   70  41  35 W14       29.60F
KENORA         PTSUNNY   68  43  40 W9        29.62F
$$
                *** MANITOBA***

CITY           SKY/WX    TMP DP  RH WIND       PRES   REMARKS
BRANDON        MOSUNNY   59  41  51 N17G24    29.94R
DAUPHIN        SUNNY     57  43  58 N16       29.96R
ISLAND LAKE    PTSUNNY   36  27  69 NW7       29.77
PILOT MOUND      N/A     55  39  54 N26G36      N/A
THE PAS        CLOUDY    46  41  81 NW8       29.95R
THOMPSON       CLOUDY    30  28  93 N6        29.88R WCI  24
WINNIPEG       PTSUNNY   55  36  47 N30       29.82R
LYNN LAKE      SUNNY     45  36  70 NW14      29.91R
CHURCHILL      LGT SNOW  25  23  93 SE6       29.93S WCI  18
GILLAM         LGT SNOW  25  21  86 NE6       29.87R WCI  18
$$
                ***SASKATCHEWAN***

CITY           SKY/WX    TMP DP  RH WIND       PRES   REMARKS
ESTEVAN        PTSUNNY   55  43  62 N20       30.04R
KINDERSLEY     PTSUNNY   48  37  66 NW6       30.20R
LLOYDMINSTER   CLOUDY    45  34  65 NW8       30.19R
PRINCE ALBERT  MOSUNNY   50  41  71 NW15      30.06R
REGINA         PTSUNNY   50  39  66 N15       30.14R
YORKTON        SUNNY     52  43  71 NW15      30.04R
N. BATTLEFORD  SUNNY     46  37  71 NW15      30.17R
LA RONGE       PTSUNNY   45  39  81 W8        30.08R
SASKATOON      CLOUDY    46  39  76 W10       30.14R
SWIFT CURRENT  SUNNY     46  37  71 NW13      30.19R
$$
NOTE: THESE ARE AUTOMATED STATIONS WITH LIMITED QUALITY CONTROL
      "FAIR" INDICATES FEW OR NO CLOUDS BELOW 12,000 FEET WITH NO
      SIGNIFICANT WEATHER AND/OR OBSTRUCTIONS TO VISIBILITY.
      SKY/WX - SKY CONDITION AND SIGNIFICANT WEATHER.
      TMP - AIR TEMPERATURE.    DP   - DEWPOINT TEMPERATURE.
      RH  - RELATIVE HUMIDITY.  PRES - PRESSURE.
      HX  - HEAT INDEX.         WCI  - WIND CHILL INDEX.
$




USA.gov is the U.S. government's official web portal to all federal, state and local government web resources and services.